AIC678 VAAH-VIDP

Flight info

Callsign AIC678
Flight time N/A
Altitude 39000
Route UUD1A UUD A347 UKASO UKASO6A
Aircraft A20N/M-SDE2E3FGHIRWXY/LB1

Departure

Time 2026-04-27 18:11
Airport Sardar Vallabh Patel International Airport (VAAH)

Arrival

Time N/A
Airport Indira Gandhi International Airport (VIDP)
Time Latitude Longitude Altitude Speed Heading
2026-04-27 17:51 23.07364 72.62456 186 ft 0 kts 319°
2026-04-27 17:56 23.07363 72.62457 186 ft 0 kts 319°
2026-04-27 17:58 23.07357 72.62463 186 ft 2 kts 312°
2026-04-27 17:58 23.07347 72.62475 186 ft 2 kts 314°
2026-04-27 17:58 23.07336 72.62487 186 ft 2 kts 313°
2026-04-27 17:58 23.07326 72.62499 186 ft 2 kts 314°
2026-04-27 17:59 23.07314 72.62508 186 ft 2 kts 351°
2026-04-27 17:59 23.07299 72.62507 186 ft 2 kts 26°
2026-04-27 17:59 23.07288 72.62496 187 ft 2 kts 53°
2026-04-27 17:59 23.07278 72.62484 187 ft 2 kts 45°
2026-04-27 18:00 23.07269 72.62475 187 ft 0 kts 47°
2026-04-27 18:01 23.07272 72.62478 187 ft 1 kts 47°
2026-04-27 18:01 23.07287 72.62495 187 ft 4 kts 48°
2026-04-27 18:01 23.07317 72.62528 186 ft 7 kts 45°
2026-04-27 18:02 23.07357 72.62571 186 ft 8 kts 44°
2026-04-27 18:02 23.07405 72.62621 186 ft 10 kts 44°
2026-04-27 18:02 23.07457 72.62677 186 ft 10 kts 44°
2026-04-27 18:02 23.07509 72.62742 186 ft 11 kts 64°
2026-04-27 18:03 23.07482 72.62820 186 ft 12 kts 136°
2026-04-27 18:03 23.07456 72.62900 186 ft 12 kts 61°
2026-04-27 18:03 23.07518 72.62972 186 ft 13 kts 44°
2026-04-27 18:03 23.07587 72.63045 186 ft 14 kts 45°
2026-04-27 18:04 23.07657 72.63125 186 ft 14 kts 47°
2026-04-27 18:04 23.07731 72.63203 186 ft 14 kts 44°
2026-04-27 18:04 23.07802 72.63280 188 ft 14 kts 46°
2026-04-27 18:04 23.07869 72.63354 189 ft 13 kts 47°
2026-04-27 18:05 23.07868 72.63438 189 ft 13 kts 141°
2026-04-27 18:05 23.07848 72.63457 189 ft 0 kts 132°
2026-04-27 18:05 23.07845 72.63461 189 ft 1 kts 131°
2026-04-27 18:06 23.07834 72.63475 189 ft 3 kts 131°
2026-04-27 18:06 23.07815 72.63505 189 ft 6 kts 109°
2026-04-27 18:06 23.07820 72.63538 190 ft 2 kts 56°
2026-04-27 18:06 23.07830 72.63552 190 ft 6 kts 53°
2026-04-27 18:07 23.07887 72.63616 191 ft 21 kts 45°
2026-04-27 18:07 23.08009 72.63749 192 ft 35 kts 45°
2026-04-27 18:07 23.08278 72.64035 191 ft 17 kts 45°
2026-04-27 18:08 23.08318 72.64124 192 ft 10 kts
2026-04-27 18:08 23.08322 72.64092 191 ft 5 kts 230°
2026-04-27 18:08 23.08287 72.64045 191 ft 6 kts 229°
2026-04-27 18:08 23.08261 72.64017 190 ft 0 kts 225°
2026-04-27 18:09 23.08260 72.64016 190 ft 0 kts 225°
2026-04-27 18:09 23.08254 72.64009 191 ft 1 kts 225°
2026-04-27 18:10 23.08242 72.63997 191 ft 2 kts 224°
2026-04-27 18:10 23.08227 72.63981 191 ft 5 kts 224°
2026-04-27 18:10 23.08016 72.63760 192 ft 85 kts 223°
2026-04-27 18:11 23.05748 72.60645 1454 ft 195 kts 266°
2026-04-27 18:11 23.05799 72.59255 2019 ft 217 kts 274°
2026-04-27 18:12 23.06289 72.55856 3197 ft 236 kts 299°
2026-04-27 18:12 23.07598 72.54289 3897 ft 249 kts 315°
2026-04-27 18:12 23.09107 72.52844 4567 ft 261 kts 315°
2026-04-27 18:13 23.10449 72.51523 5152 ft 265 kts 314°
2026-04-27 18:13 23.11797 72.50141 5831 ft 269 kts 313°
2026-04-27 18:13 23.13137 72.48728 6539 ft 272 kts 311°
2026-04-27 18:13 23.14478 72.47291 7243 ft 275 kts 311°
2026-04-27 18:14 23.15840 72.45822 7955 ft 278 kts 311°
2026-04-27 18:14 23.17216 72.44353 8656 ft 283 kts 314°
2026-04-27 18:14 23.18936 72.43272 9344 ft 296 kts 341°
2026-04-27 18:14 23.21029 72.43153 10048 ft 307 kts
2026-04-27 18:15 23.22981 72.44085 10744 ft 315 kts 37°
2026-04-27 18:15 23.24575 72.45704 11461 ft 317 kts 45°
2026-04-27 18:15 23.26110 72.47411 12173 ft 318 kts 45°
2026-04-27 18:15 23.27663 72.49132 12877 ft 319 kts 45°
2026-04-27 18:16 23.29219 72.50833 13584 ft 320 kts 45°
2026-04-27 18:16 23.30808 72.52557 14080 ft 328 kts 45°
2026-04-27 18:16 23.32454 72.54330 14563 ft 337 kts 44°
2026-04-27 18:16 23.34149 72.56148 15062 ft 346 kts 44°
2026-04-27 18:17 23.35879 72.58003 15556 ft 354 kts 44°
2026-04-27 18:17 23.37635 72.59885 16033 ft 361 kts 44°
2026-04-27 18:17 23.39455 72.61828 16519 ft 368 kts 43°
2026-04-27 18:17 23.41362 72.63690 16999 ft 374 kts 39°
2026-04-27 18:18 23.43428 72.65471 17483 ft 380 kts 36°
2026-04-27 18:18 23.45553 72.67228 17979 ft 386 kts 36°
2026-04-27 18:18 23.47692 72.68986 18466 ft 391 kts 36°
2026-04-27 18:18 23.49874 72.70779 18954 ft 396 kts 36°
2026-04-27 18:19 23.52090 72.72604 19448 ft 400 kts 36°
2026-04-27 18:19 23.54332 72.74456 19945 ft 405 kts 36°
2026-04-27 18:19 23.56589 72.76319 20441 ft 408 kts 36°
2026-04-27 18:19 23.58831 72.78174 20929 ft 412 kts 36°
2026-04-27 18:20 23.61138 72.80084 21432 ft 415 kts 36°
2026-04-27 18:20 23.63427 72.81977 21927 ft 418 kts 35°
2026-04-27 18:20 23.65757 72.83907 22429 ft 421 kts 35°
2026-04-27 18:20 23.68107 72.85855 22940 ft 423 kts 35°
2026-04-27 18:21 23.70442 72.87790 23448 ft 425 kts 35°
2026-04-27 18:21 23.72806 72.89749 23964 ft 427 kts 35°
2026-04-27 18:21 23.75172 72.91711 24467 ft 429 kts 35°
2026-04-27 18:21 23.77552 72.93686 24973 ft 430 kts 35°
2026-04-27 18:22 23.79931 72.95662 25478 ft 432 kts 35°
2026-04-27 18:22 23.82325 72.97652 25986 ft 432 kts 35°
2026-04-27 18:22 23.84700 72.99625 26492 ft 433 kts 35°
2026-04-27 18:22 23.87119 73.01637 27004 ft 434 kts 35°
2026-04-27 18:23 23.89512 73.03628 27384 ft 437 kts 36°
2026-04-27 18:23 23.91957 73.05664 27770 ft 441 kts 35°
2026-04-27 18:23 23.94394 73.07694 28152 ft 444 kts 35°
2026-04-27 18:23 23.96855 73.09744 28536 ft 446 kts 35°
2026-04-27 18:24 23.99315 73.11795 28920 ft 449 kts 35°
2026-04-27 18:24 24.01809 73.13875 29299 ft 451 kts 35°
2026-04-27 18:24 24.04309 73.15961 29669 ft 453 kts 35°
2026-04-27 18:24 24.06797 73.18039 30037 ft 454 kts 35°
2026-04-27 18:25 24.09320 73.20144 30408 ft 455 kts 35°
2026-04-27 18:25 24.11842 73.22247 30780 ft 456 kts 35°
2026-04-27 18:25 24.14378 73.24357 31155 ft 457 kts 34°
2026-04-27 18:25 24.16903 73.26463 31525 ft 457 kts 35°
2026-04-27 18:26 24.19365 73.28624 31900 ft 459 kts 38°
2026-04-27 18:26 24.21773 73.30969 32281 ft 459 kts 40°
2026-04-27 18:26 24.24036 73.33422 32669 ft 460 kts 44°
2026-04-27 18:26 24.26184 73.36013 33045 ft 460 kts 47°
2026-04-27 18:27 24.28210 73.38735 33428 ft 460 kts 50°
2026-04-27 18:27 24.30093 73.41522 33777 ft 460 kts 51°
2026-04-27 18:27 24.31979 73.44388 34031 ft 462 kts 52°
2026-04-27 18:27 24.33853 73.47249 34294 ft 463 kts 51°
2026-04-27 18:28 24.35708 73.50081 34574 ft 464 kts 52°
2026-04-27 18:28 24.37606 73.52971 34821 ft 464 kts 51°
2026-04-27 18:28 24.39497 73.55849 35104 ft 465 kts 51°
2026-04-27 18:28 24.41391 73.58732 35366 ft 465 kts 51°
2026-04-27 18:29 24.43262 73.61579 35627 ft 464 kts 51°
2026-04-27 18:29 24.45162 73.64473 35903 ft 464 kts 51°
2026-04-27 18:29 24.47019 73.67308 36158 ft 463 kts 52°
2026-04-27 18:29 24.48893 73.70180 36421 ft 462 kts 52°
2026-04-27 18:30 24.50765 73.73046 36709 ft 461 kts 52°
2026-04-27 18:30 24.52640 73.75912 36966 ft 459 kts 52°
2026-04-27 18:30 24.54499 73.78751 37224 ft 457 kts 51°
2026-04-27 18:30 24.56370 73.81574 37502 ft 455 kts 50°
2026-04-27 18:31 24.58350 73.84256 37771 ft 451 kts 46°
2026-04-27 18:31 24.60473 73.86771 38041 ft 448 kts 41°
2026-04-27 18:31 24.62730 73.89108 38307 ft 443 kts 38°
2026-04-27 18:31 24.65073 73.91232 38587 ft 439 kts 33°
2026-04-27 18:32 24.67537 73.93181 38897 ft 434 kts 30°
2026-04-27 18:32 24.70083 73.94933 39070 ft 432 kts 26°
2026-04-27 18:32 24.75349 73.98268 39114 ft 438 kts 26°
2026-04-27 18:33 24.80658 74.01620 39113 ft 445 kts 26°
2026-04-27 18:33 24.86058 74.05049 39123 ft 451 kts 26°
2026-04-27 18:34 24.91522 74.08528 39125 ft 456 kts 26°
2026-04-27 18:34 24.97018 74.12035 39130 ft 460 kts 26°
2026-04-27 18:35 25.02572 74.15578 39135 ft 463 kts 26°
2026-04-27 18:35 25.08205 74.19179 39138 ft 467 kts 26°
2026-04-27 18:36 25.13822 74.22766 39146 ft 469 kts 26°
2026-04-27 18:36 25.19437 74.26347 39144 ft 472 kts 26°
2026-04-27 18:37 25.25147 74.30003 39134 ft 475 kts 26°
2026-04-27 18:37 25.30870 74.33675 39139 ft 476 kts 26°
2026-04-27 18:38 25.36573 74.37340 39137 ft 478 kts 26°
2026-04-27 18:38 25.42313 74.41033 39128 ft 478 kts 26°
2026-04-27 18:39 25.48046 74.44726 39133 ft 477 kts 26°
2026-04-27 18:39 25.53788 74.48429 39113 ft 478 kts 26°
2026-04-27 18:40 25.59542 74.52145 39113 ft 478 kts 26°
2026-04-27 18:40 25.65288 74.55859 39116 ft 477 kts 26°
2026-04-27 18:41 25.71011 74.59562 39087 ft 477 kts 26°
2026-04-27 18:41 25.76747 74.63276 39089 ft 477 kts 26°
2026-04-27 18:42 25.81523 74.66379 39090 ft 477 kts 27°
2026-04-27 18:42 25.88189 74.70743 39069 ft 477 kts 27°
2026-04-27 18:43 25.93904 74.74470 39088 ft 477 kts 27°
2026-04-27 18:43 25.99639 74.78205 39097 ft 476 kts 27°
2026-04-27 18:44 26.05284 74.81883 39082 ft 476 kts 27°
2026-04-27 18:44 26.10963 74.85584 39087 ft 476 kts 27°
2026-04-27 18:45 26.16673 74.89294 39075 ft 476 kts 27°
2026-04-27 18:45 26.22405 74.93031 39079 ft 478 kts 27°
2026-04-27 18:46 26.28141 74.96783 39058 ft 478 kts 27°
2026-04-27 18:46 26.33828 75.00510 39068 ft 477 kts 27°
2026-04-27 18:47 26.39458 75.04203 39047 ft 477 kts 27°
2026-04-27 18:47 26.45137 75.07930 39085 ft 478 kts 27°
2026-04-27 18:48 26.50842 75.11662 39053 ft 478 kts 27°
2026-04-27 18:48 26.56568 75.15409 39056 ft 478 kts 27°
2026-04-27 18:49 26.62332 75.19187 39043 ft 479 kts 27°
2026-04-27 18:49 26.68061 75.22945 39072 ft 479 kts 27°
2026-04-27 18:50 26.73797 75.26715 39040 ft 479 kts 27°
2026-04-27 18:50 26.79535 75.30490 39085 ft 479 kts 27°
2026-04-27 18:51 26.85272 75.34269 39064 ft 479 kts 27°
2026-04-27 18:51 26.91021 75.38061 39081 ft 479 kts 27°
2026-04-27 18:52 26.96768 75.41856 39101 ft 480 kts 27°
2026-04-27 18:53 27.05410 75.47568 39081 ft 481 kts 27°
2026-04-27 18:53 27.11140 75.51363 39093 ft 480 kts 27°
2026-04-27 18:54 27.16904 75.55168 39083 ft 481 kts 27°
2026-04-27 18:54 27.22667 75.58981 39071 ft 479 kts 27°
2026-04-27 18:55 27.28383 75.62781 38793 ft 480 kts 27°
2026-04-27 18:55 27.31235 75.64677 38157 ft 478 kts 27°
2026-04-27 18:55 27.34097 75.66589 37590 ft 478 kts 28°
2026-04-27 18:55 27.36942 75.68500 37060 ft 479 kts 28°
2026-04-27 18:56 27.39806 75.70420 36650 ft 479 kts 28°
2026-04-27 18:56 27.42694 75.72355 36095 ft 480 kts 28°
2026-04-27 18:56 27.45536 75.74255 35379 ft 478 kts 28°
2026-04-27 18:56 27.48420 75.76181 34656 ft 481 kts 28°
2026-04-27 18:57 27.51294 75.78100 33831 ft 481 kts 28°
2026-04-27 18:57 27.54163 75.80016 33192 ft 483 kts 28°
2026-04-27 18:57 27.57078 75.81966 32562 ft 486 kts 28°
2026-04-27 18:57 27.59972 75.83905 31916 ft 488 kts 28°
2026-04-27 18:58 27.62840 75.85970 31281 ft 491 kts 32°
2026-04-27 18:58 27.64678 75.87457 30874 ft 494 kts 34°
2026-04-27 18:58 27.68242 75.90724 30039 ft 497 kts 38°
2026-04-27 18:58 27.70863 75.93252 29407 ft 499 kts 38°
2026-04-27 18:59 27.73496 75.95809 28740 ft 501 kts 38°
2026-04-27 18:59 27.76154 75.98392 28089 ft 502 kts 38°
2026-04-27 18:59 27.78778 76.00939 27452 ft 503 kts 38°
2026-04-27 18:59 27.81456 76.03535 26794 ft 505 kts 38°
2026-04-27 19:00 27.84098 76.06094 26155 ft 505 kts 38°
2026-04-27 19:00 27.86741 76.08657 25519 ft 496 kts 38°
2026-04-27 19:00 27.89322 76.11164 24888 ft 487 kts 38°
2026-04-27 19:00 27.91867 76.13634 24262 ft 480 kts 38°
2026-04-27 19:01 27.94363 76.16055 23632 ft 473 kts 38°
2026-04-27 19:01 27.96847 76.18466 22968 ft 467 kts 38°
2026-04-27 19:01 27.99292 76.20841 22343 ft 462 kts 38°
2026-04-27 19:01 28.01707 76.23190 21746 ft 457 kts 38°
2026-04-27 19:02 28.04127 76.25545 21135 ft 453 kts 38°
2026-04-27 19:02 28.06487 76.27841 20529 ft 450 kts 38°
2026-04-27 19:02 28.08858 76.30151 19917 ft 445 kts 38°
2026-04-27 19:02 28.11177 76.32407 19316 ft 441 kts 38°
2026-04-27 19:03 28.13496 76.34655 18740 ft 438 kts 38°
2026-04-27 19:03 28.15808 76.36900 18255 ft 435 kts 38°
2026-04-27 19:03 28.18070 76.39107 17768 ft 431 kts 38°
2026-04-27 19:03 28.19589 76.40591 17439 ft 428 kts 37°
2026-04-27 19:04 28.22502 76.43557 16784 ft 425 kts 44°
2026-04-27 19:04 28.24322 76.46230 16377 ft 428 kts 54°
2026-04-27 19:04 28.25852 76.49109 16020 ft 428 kts 57°
2026-04-27 19:04 28.27330 76.52035 15655 ft 426 kts 57°
2026-04-27 19:05 28.28793 76.54944 15285 ft 425 kts 57°
2026-04-27 19:05 28.30261 76.57838 14922 ft 422 kts 57°
2026-04-27 19:05 28.31722 76.60691 14565 ft 421 kts 57°
2026-04-27 19:05 28.33204 76.63577 14200 ft 420 kts 57°
2026-04-27 19:06 28.34659 76.66438 13837 ft 420 kts 60°
2026-04-27 19:06 28.35955 76.69427 13472 ft 420 kts 63°
2026-04-27 19:06 28.37163 76.72405 13114 ft 419 kts 63°
2026-04-27 19:06 28.38371 76.75419 12751 ft 417 kts 63°
2026-04-27 19:07 28.39560 76.78374 12391 ft 415 kts 63°
2026-04-27 19:07 28.40774 76.81374 12025 ft 412 kts 63°
2026-04-27 19:07 28.41965 76.84306 11667 ft 410 kts 63°
2026-04-27 19:07 28.43146 76.87219 11306 ft 402 kts 63°
2026-04-27 19:08 28.44077 76.89510 11018 ft 394 kts 63°
2026-04-27 19:08 28.44975 76.91722 10735 ft 387 kts 63°
2026-04-27 19:08 28.46266 76.94903 10320 ft 377 kts 64°
2026-04-27 19:08 28.46882 76.96755 10068 ft 374 kts 75°
2026-04-27 19:09 28.46581 77.01376 9496 ft 362 kts 109°
2026-04-27 19:09 28.45708 77.04096 9137 ft 355 kts 111°
2026-04-27 19:09 28.45100 77.06095 8866 ft 351 kts 108°
2026-04-27 19:10 28.44408 77.08719 8516 ft 345 kts 105°
2026-04-27 19:10 28.43599 77.12266 8036 ft 338 kts 103°
2026-04-27 19:10 28.43017 77.14960 7669 ft 333 kts 103°
2026-04-27 19:11 28.42053 77.19471 7013 ft 309 kts 103°
2026-04-27 19:11 28.41625 77.21458 6711 ft 297 kts 103°
2026-04-27 19:11 28.41155 77.23636 6364 ft 284 kts 103°
2026-04-27 19:11 28.40772 77.25406 6070 ft 274 kts 102°
2026-04-27 19:12 28.40579 77.27209 5752 ft 264 kts 79°
2026-04-27 19:12 28.41207 77.28955 5406 ft 251 kts 43°
2026-04-27 19:12 28.43616 77.29991 4829 ft 221 kts 354°
2026-04-27 19:13 28.44879 77.29956 4556 ft 218 kts 357°